#timestamp,LO_Frequency,Hit,StdDev 
1607864415.0,286047004.3,N
1607864415.9,286047004.3,N
1607864435.8,286047005.7,N
1607864455.6,286047006.4,Y
1607864475.5,286047002.6,P
1607864495.3,286047002.2,P
1607864515.1,286047001.2,P
1607864535.9,286047002.2,Y
1607864555.7,286046998.1,P
1607864575.5,286046998.5,N
1607864595.4,286046997.7,N
1607864615.2,286046996.7,N
1607864635.1,286046996.7,N
1607864636.0,286046996.7,N
1607864655.8,286046994.9,N
1607864675.6,286046998.0,N
1607864695.5,286046997.2,N
1607864715.3,286047000.7,N
1607864735.1,286046999.0,N
1607864755.9,286046998.5,N
1607864775.7,286046998.1,N
1607864795.6,286047001.2,N
1607864815.4,286047002.6,N
1607864835.2,286046998.5,N
1607864855.1,286046999.3,N
1607864856.0,286046999.3,N
1607864875.8,286047001.1,N
1607864895.6,286046998.1,N
1607864915.5,286046998.5,N
1607864935.3,286046997.9,N
1607864955.2,286046996.7,N
1607864975.9,286047002.7,N
1607864995.7,286047000.0,N
1607865015.6,286046999.6,N
1607865035.4,286046998.2,N
1607865055.2,286047002.4,N
1607865075.1,286047002.2,N
1607865076.0,286047002.2,N
1607865095.8,286047000.2,N
1607865115.7,286047000.5,N
1607865135.5,286047000.0,N
1607865155.3,286047000.6,N
1607865175.2,286047002.8,N
1607865195.0,286046999.7,N
1607865195.9,286046999.7,N
1607865215.7,286047000.3,N
1607865235.6,286047002.0,N
1607865255.4,286047002.6,N
1607865275.3,286047002.3,N
1607865295.1,286046999.9,N
1607865296.0,286046999.9,N
1607865315.8,286046999.9,N
1607865335.7,286047002.8,N
1607865355.5,286047001.2,N
1607865375.3,286047000.2,N
1607865395.2,286046998.2,N
1607865415.0,286047002.8,N
1607865415.9,286047002.8,N
1607865435.8,286046998.3,N
1607865455.6,286047001.1,N
1607865475.4,286046997.4,N
1607865495.3,286046995.1,Y
1607865515.1,286046999.6,P
1607865535.9,286046999.3,N
1607865555.7,286046999.1,N
1607865575.5,286046996.9,Y
1607865595.4,286046998.9,P
1607865615.2,286047000.7,N
1607865635.0,286047000.7,N
1607865635.9,286047000.7,N
1607865655.8,286047000.7,N
1607865675.6,286047000.5,N
1607865695.5,286046998.3,N
1607865715.3,286046999.0,N
1607865735.1,286047002.6,N
1607865755.9,286046999.3,N
1607865775.7,286046998.9,N
1607865795.5,286046998.8,N
1607865815.4,286046998.1,N
1607865835.2,286046999.1,N
1607865855.1,286046996.8,N
1607865856.0,286046996.8,N
1607865875.8,286046996.7,N
1607865895.6,286046996.8,N
1607865915.5,286046998.0,N
1607865935.3,286046996.1,N
1607865955.1,286046995.4,N
1607865975.9,286046997.0,N
1607865995.7,286046996.6,N
1607866015.6,286047001.1,N
1607866035.4,286047000.6,N
1607866055.2,286047002.0,N
1607866075.1,286047002.2,N
1607866076.0,286047002.2,N
1607866095.8,286047003.3,N
1607866115.6,286047002.4,N
1607866135.5,286047002.6,N
1607866155.3,286046998.3,N
1607866175.2,286046999.8,N
1607866195.9,286047002.4,N
1607866215.7,286046997.1,N
1607866235.6,286046995.3,N
1607866255.4,286046996.3,N
1607866275.2,286046995.2,N
1607866295.1,286046996.7,N
1607866296.0,286046996.7,N
1607866315.8,286046997.9,N
1607866335.7,286046999.6,N
1607866355.5,286046998.8,N
1607866375.3,286046998.1,N
1607866395.2,286047001.1,N
1607866415.0,286047000.8,N
1607866415.9,286047000.8,N
1607866435.7,286046996.9,N
1607866455.6,286046997.7,N
1607866475.4,286046996.9,N
1607866495.3,286046997.1,N
1607866515.1,286046997.6,N
1607866516.0,286046997.6,N
1607866535.8,286046999.4,N
1607866555.7,286047000.2,N
1607866575.5,286046999.2,N
1607866595.3,286047001.1,N
1607866615.2,286047000.9,N
1607866635.0,286046998.2,N
1607866635.9,286046998.2,N
1607866655.8,286046999.6,N
1607866675.6,286046999.4,N
1607866695.4,286046995.8,N
1607866715.3,286046995.0,N
1607866735.1,286046997.5,N
1607866755.8,286046999.1,N
1607866775.7,286047001.1,N
1607866795.5,286047000.5,N
1607866815.4,286047000.9,N
1607866835.2,286046999.9,N
1607866855.0,286047002.2,N
1607866855.9,286047002.2,N
1607866875.8,286047004.2,N
1607866895.6,286047002.2,N
1607866915.4,286046998.7,N
1607866935.3,286046996.6,N
1607866955.1,286046997.3,N
1607866975.9,286046994.9,N
1607866995.7,286046995.6,N
1607867015.5,286046997.6,N
1607867035.4,286046998.4,N
1607867055.2,286046996.5,N
1607867075.0,286047001.2,N
1607867075.9,286047001.2,N
1607867095.8,286047000.6,N
1607867115.6,286046998.8,N
1607867135.5,286047000.3,N
1607867155.3,286046998.5,N
1607867175.1,286046998.3,N
1607867195.9,286046997.9,N
1607867215.7,286046997.1,N
1607867235.5,286047000.2,N
1607867255.4,286046998.4,N
1607867275.2,286046996.7,N
1607867295.1,286046999.2,N
1607867296.0,286046999.2,N
1607867315.8,286046999.0,N
1607867335.6,286047000.0,N
1607867355.5,286047002.2,N
1607867375.3,286046999.8,N
1607867395.1,286047001.9,N
1607867415.9,286047000.9,N
1607867435.7,286047001.0,N
1607867455.6,286046999.8,N
1607867475.4,286046998.1,N
1607867495.2,286047002.7,N
1607867515.1,286047001.6,N
1607867516.0,286047001.6,N
1607867535.8,286047002.3,N
1607867555.6,286046996.6,N
1607867575.5,286047001.1,N
1607867595.3,286046998.7,N
1607867615.2,286047000.4,N
1607867635.9,286046997.7,N
1607867655.7,286046996.5,N
1607867675.6,286046997.5,N
1607867695.4,286046996.6,N
1607867715.2,286046998.3,N
1607867735.1,286047001.0,N
1607867736.0,286047001.0,N
1607867755.8,286046999.6,N
1607867775.7,286046999.3,N
1607867795.5,286046998.3,N
1607867815.3,286046999.2,N
1607867835.2,286047000.4,N
1607867855.0,286047002.7,N
1607867855.9,286047002.7,N
1607867875.7,286047004.1,N
1607867895.6,286047001.2,N
1607867915.4,286046997.8,N
1607867935.3,286046995.3,N
1607867955.1,286046999.2,N
1607867956.0,286046999.2,N
1607867975.8,286046997.5,N
1607867995.7,286046997.7,N
